Dillon, MT

7:12 PM MDT on May 24, 2017 (GMT -0600)
Dillon

Weather History for KDLN - April, 2013

Change the Weather History Date:

Friday, April 5, 2013

  Actual Average Record
Temperature  
Mean Temperature 48 °F 39 °F  
Max Temperature 57 °F 51 °F 73 °F (1960)
Min Temperature 39 °F 27 °F 8 °F (1982)
Degree Days  
Heating Degree Days 17    
Month to date heating degree days 86  
Since 1 July heating degree days 6417  
Cooling Degree Days 0    
Month to date cooling degree days 0  
Year to date cooling degree days 0  
Moisture  
Dew Point 31 °F    
Average Humidity 54    
Maximum Humidity 82    
Minimum Humidity 26    
Precipitation  
Precipitation 0.01 in 0.03 in 0.72 in (2006)
Month to date precipitation 0.01 0.15  
Year to date precipitation 0.41 1.23  
Snow  
Snow 0.00 in - - ()
Snow Depth 0.00 in    
Sea Level Pressure  
Sea Level Pressure 29.77 in    
Wind  
Wind Speed 13 mph (SW)    
Max Wind Speed 30 mph    
Max Gust Speed 37 mph    
Visibility 10 miles    
Events Rain    
T = Trace of Precipitation, MM = Missing Value Source: NWS Daily Summary

Daily Weather History Graph

Daily Weather History Graph

Search for Another Location

Airport or City:

Trip Planner

Search our weather history database for the weather conditions in past years. The results will help you decide how hot, cold, wet, or windy it might be!

Date:

Astronomy

Apr. 05, 2013 Rise Set
Actual Time 7:02 AM MDT 8:03 PM MDT
Civil Twilight 6:32 AM MDT 8:33 PM MDT
Nautical Twilight 5:56 AM MDT 9:09 PM MDT
Astronomical Twilight 5:18 AM MDT 9:47 PM MDT
Moon 4:25 AM MDT (4/5) 3:20 PM MDT (4/5)
Length of Visible Light 14h 01m
Length of Day
13h 01m
Waning Crescent, 23% of the Moon is Illuminated
Apr 5
Waning Crescent
Apr 10
New
Apr 18
First Quarter
Apr 25
Full
May 2
Last Quarter

Hourly Weather History & Observations

Time (MDT) Temp. Windchill Dew Point Humidity Pressure Visibility Wind Dir Wind Speed Gust Speed Precip Events Conditions
12:53 AM 51.1 °F - 32.0 °F 48% 29.72 in 10.0 mi South 6.9 mph - N/A   Mostly Cloudy
1:53 AM 50.0 °F - 33.1 °F 52% 29.70 in 10.0 mi SSE 8.1 mph - N/A   Overcast
2:53 AM 46.9 °F - 33.1 °F 59% 29.71 in 10.0 mi SSW 8.1 mph - N/A   Overcast
3:53 AM 46.9 °F - 37.0 °F 68% 29.71 in 10.0 mi SSW 13.8 mph - 0.00 in Rain Light Rain
4:53 AM 46.0 °F 40.6 °F 37.0 °F 71% 29.70 in 10.0 mi South 11.5 mph - 0.00 in   Overcast
5:15 AM 46.4 °F 39.0 °F 37.4 °F 71% 29.82 in 10.0 mi WSW 19.6 mph 32.2 mph 0.01 in Rain Light Rain
5:53 AM 45.0 °F 37.6 °F 37.0 °F 74% 29.72 in 10.0 mi SSW 17.3 mph - 0.01 in   Overcast
6:53 AM 43.0 °F 35.7 °F 37.0 °F 80% 29.72 in 10.0 mi SSW 15.0 mph - N/A   Scattered Clouds
7:53 AM 43.0 °F 36.4 °F 35.1 °F 74% 29.74 in 10.0 mi SW 12.7 mph - N/A   Clear
8:53 AM 44.1 °F 38.6 °F 36.0 °F 73% 29.76 in 10.0 mi SSW 10.4 mph - N/A   Mostly Cloudy
9:53 AM 46.9 °F - 35.1 °F 63% 29.75 in 10.0 mi SW 13.8 mph - N/A   Mostly Cloudy
10:53 AM 48.9 °F - 30.0 °F 48% 29.75 in 10.0 mi WSW 13.8 mph - N/A   Overcast
11:53 AM 50.0 °F - 28.9 °F 44% 29.77 in 10.0 mi WNW 8.1 mph - N/A   Overcast
12:53 PM 50.0 °F - 28.0 °F 43% 29.75 in 10.0 mi WSW 20.7 mph 31.1 mph 0.00 in   Scattered Clouds
1:53 PM 54.0 °F - 26.1 °F 34% 29.73 in 10.0 mi West 11.5 mph 23.0 mph N/A   Scattered Clouds
2:53 PM 57.0 °F - 26.1 °F 30% 29.73 in 10.0 mi WSW 21.9 mph 28.8 mph N/A   Clear
3:53 PM 53.1 °F - 26.1 °F 35% 29.76 in 10.0 mi West 19.6 mph 27.6 mph N/A   Overcast
4:53 PM 53.1 °F - 25.0 °F 34% 29.76 in 10.0 mi West 19.6 mph 32.2 mph N/A   Mostly Cloudy
5:53 PM 55.0 °F - 21.9 °F 28% 29.78 in 10.0 mi West 23.0 mph 28.8 mph N/A   Overcast
6:53 PM 52.0 °F - 23.0 °F 32% 29.81 in 10.0 mi West 16.1 mph - N/A   Mostly Cloudy
7:53 PM 48.9 °F - 26.1 °F 41% 29.83 in 10.0 mi WSW 11.5 mph - N/A   Overcast
8:53 PM 46.0 °F 43.1 °F 27.0 °F 47% 29.85 in 10.0 mi South 5.8 mph - N/A   Overcast
9:53 PM 46.0 °F 41.0 °F 28.9 °F 51% 29.87 in 10.0 mi West 10.4 mph - N/A   Overcast
10:53 PM 44.1 °F 40.1 °F 28.9 °F 55% 29.88 in 10.0 mi South 6.9 mph - N/A   Overcast
11:53 PM 42.1 °F 39.2 °F 28.9 °F 60% 29.88 in 10.0 mi South 4.6 mph - N/A   Overcast